,,PressureMeas_1m,,PRMeasQMR101_1,,RHStat155_1m_1,,SRMeasQMS101R_1m,,TAStat155_1m_1,,GenWind_1,,GenWind_1,
2018-08-27, 07:00:06,VALID,917.554,VALID,0.0,VALID,90.419,VALID,101.069,VALID,18.784,VALID,133.0,VALID,0.0,
2018-08-27, 07:01:06,VALID,917.559,VALID,0.0,VALID,89.625,VALID,102.537,VALID,18.859,VALID,130.0,VALID,0.395,
2018-08-27, 07:02:06,VALID,917.583,VALID,0.0,VALID,89.528,VALID,102.857,VALID,18.807,VALID,129.0,VALID,0.992,
2018-08-27, 07:03:06,VALID,917.576,VALID,0.0,VALID,89.702,VALID,101.75,VALID,18.738,VALID,125.0,VALID,1.491,
2018-08-27, 07:04:06,VALID,917.581,VALID,0.0,VALID,89.66,VALID,100.489,VALID,18.613,VALID,117.0,VALID,1.84,
2018-08-27, 07:05:06,VALID,917.565,VALID,0.0,VALID,90.66,VALID,103.304,VALID,18.466,VALID,108.0,VALID,1.738,
2018-08-27, 07:06:06,VALID,917.573,VALID,0.0,VALID,91.167,VALID,111.046,VALID,18.407,VALID,103.0,VALID,1.547,
2018-08-27, 07:07:06,VALID,917.569,VALID,0.0,VALID,90.966,VALID,119.305,VALID,18.437,VALID,93.0,VALID,1.612,
2018-08-27, 07:08:06,VALID,917.579,VALID,0.0,VALID,90.118,VALID,122.342,VALID,18.462,VALID,95.0,VALID,1.55,
2018-08-27, 07:09:07,VALID,917.58,VALID,0.0,VALID,90.195,VALID,129.37,VALID,18.527,VALID,94.0,VALID,1.603,
2018-08-27, 07:10:07,VALID,917.582,VALID,0.0,VALID,89.703,VALID,137.0,VALID,18.58,VALID,89.0,VALID,1.679,
2018-08-27, 07:11:07,VALID,917.58,VALID,0.0,VALID,89.555,VALID,142.186,VALID,18.609,VALID,83.0,VALID,1.521,
2018-08-27, 07:12:07,VALID,917.625,VALID,0.0,VALID,89.654,VALID,147.695,VALID,18.649,VALID,68.0,VALID,1.423,
2018-08-27, 07:13:07,VALID,917.607,VALID,0.0,VALID,89.712,VALID,155.653,VALID,18.655,VALID,68.0,VALID,1.563,
2018-08-27, 07:14:07,VALID,917.606,VALID,0.0,VALID,89.849,VALID,163.113,VALID,18.627,VALID,70.0,VALID,1.421,
2018-08-27, 07:15:07,VALID,917.628,VALID,0.0,VALID,90.202,VALID,170.671,VALID,18.621,VALID,79.0,VALID,1.325,
2018-08-27, 07:16:07,VALID,917.657,VALID,0.0,VALID,90.025,VALID,179.992,VALID,18.617,VALID,84.0,VALID,1.333,
2018-08-27, 07:17:07,VALID,917.688,VALID,0.0,VALID,90.285,VALID,190.32,VALID,18.644,VALID,84.0,VALID,1.061,
2018-08-27, 07:18:07,VALID,917.725,VALID,0.0,VALID,90.584,VALID,188.976,VALID,18.747,VALID,77.0,VALID,0.884,
2018-08-27, 07:19:07,VALID,917.771,VALID,0.0,VALID,89.837,VALID,182.581,VALID,18.904,VALID,79.0,VALID,1.016,
2018-08-27, 07:20:07,VALID,917.797,VALID,0.0,VALID,88.878,VALID,184.366,VALID,19.07,VALID,79.0,VALID,0.934,
2018-08-27, 07:21:07,VALID,917.848,VALID,0.0,VALID,88.55,VALID,192.613,VALID,19.198,VALID,84.0,VALID,0.887,
2018-08-27, 07:22:07,VALID,917.884,VALID,0.0,VALID,88.276,VALID,182.428,VALID,19.312,VALID,104.0,VALID,0.903,
2018-08-27, 07:23:07,VALID,917.909,VALID,0.0,VALID,87.659,VALID,168.731,VALID,19.429,VALID,103.0,VALID,0.87,
2018-08-27, 07:24:07,VALID,917.933,VALID,0.0,VALID,86.745,VALID,157.53,VALID,19.523,VALID,103.0,VALID,0.649,
2018-08-27, 07:25:07,VALID,917.963,VALID,0.0,VALID,85.999,VALID,155.516,VALID,19.595,VALID,110.0,VALID,1.058,
2018-08-27, 07:26:07,VALID,917.99,VALID,0.0,VALID,84.964,VALID,154.662,VALID,19.616,VALID,115.0,VALID,0.869,
2018-08-27, 07:27:07,VALID,918.015,VALID,0.0,VALID,84.799,VALID,160.285,VALID,19.593,VALID,107.0,VALID,1.027,
2018-08-27, 07:28:07,VALID,918.022,VALID,0.0,VALID,85.442,VALID,164.382,VALID,19.62,VALID,99.0,VALID,0.765,
2018-08-27, 07:29:07,VALID,918.019,VALID,0.0,VALID,85.164,VALID,165.613,VALID,19.674,VALID,95.0,VALID,1.343,
2018-08-27, 07:30:07,VALID,918.017,VALID,0.0,VALID,83.938,VALID,161.97,VALID,19.653,VALID,98.0,VALID,1.764,
2018-08-27, 07:31:07,VALID,918.022,VALID,0.0,VALID,84.802,VALID,173.396,VALID,19.572,VALID,93.0,VALID,1.852,
2018-08-27, 07:32:07,VALID,918.019,VALID,0.0,VALID,85.438,VALID,201.054,VALID,19.511,VALID,100.0,VALID,1.916,
2018-08-27, 07:33:07,VALID,918.033,VALID,0.0,VALID,85.704,VALID,209.662,VALID,19.516,VALID,104.0,VALID,1.56,
2018-08-27, 07:34:07,VALID,918.042,VALID,0.0,VALID,86.773,VALID,204.766,VALID,19.594,VALID,107.0,VALID,1.451,
2018-08-27, 07:35:07,VALID,918.072,VALID,0.0,VALID,86.289,VALID,184.067,VALID,19.645,VALID,112.0,VALID,1.39,
2018-08-27, 07:36:07,VALID,918.106,VALID,0.0,VALID,85.352,VALID,182.135,VALID,19.589,VALID,120.0,VALID,1.795,
2018-08-27, 07:37:07,VALID,918.095,VALID,0.0,VALID,85.378,VALID,210.836,VALID,19.529,VALID,137.0,VALID,1.428,
2018-08-27, 07:38:07,VALID,918.136,VALID,0.0,VALID,85.048,VALID,229.451,VALID,19.508,VALID,129.0,VALID,1.761,
2018-08-27, 07:39:07,VALID,918.141,VALID,0.0,VALID,85.069,VALID,239.803,VALID,19.459,VALID,120.0,VALID,1.583,
2018-08-27, 07:40:07,VALID,918.146,VALID,0.0,VALID,86.345,VALID,208.218,VALID,19.397,VALID,107.0,VALID,1.523,
2018-08-27, 07:41:07,VALID,918.141,VALID,0.0,VALID,86.507,VALID,195.077,VALID,19.426,VALID,93.0,VALID,1.402,
2018-08-27, 07:42:07,VALID,918.136,VALID,0.0,VALID,86.922,VALID,221.133,VALID,19.429,VALID,100.0,VALID,1.675,
2018-08-27, 07:43:07,VALID,918.138,VALID,0.0,VALID,87.147,VALID,231.047,VALID,19.448,VALID,102.0,VALID,1.191,
2018-08-27, 07:44:07,VALID,918.126,VALID,0.0,VALID,87.058,VALID,209.439,VALID,19.544,VALID,103.0,VALID,1.228,
2018-08-27, 07:45:07,VALID,918.115,VALID,0.0,VALID,86.799,VALID,206.909,VALID,19.633,VALID,104.0,VALID,1.379,
2018-08-27, 07:46:07,VALID,918.109,VALID,0.0,VALID,86.505,VALID,212.452,VALID,19.723,VALID,111.0,VALID,1.563,
2018-08-27, 07:47:07,VALID,918.106,VALID,0.0,VALID,85.997,VALID,223.903,VALID,19.764,VALID,115.0,VALID,1.94,
2018-08-27, 07:48:07,VALID,918.101,VALID,0.0,VALID,85.339,VALID,249.671,VALID,19.724,VALID,118.0,VALID,2.081,
2018-08-27, 07:49:07,VALID,918.11,VALID,0.0,VALID,85.751,VALID,277.125,VALID,19.696,VALID,119.0,VALID,1.703,
2018-08-27, 07:50:07,VALID,918.124,VALID,0.0,VALID,86.417,VALID,275.437,VALID,19.724,VALID,124.0,VALID,1.497,
2018-08-27, 07:51:07,VALID,918.146,VALID,0.0,VALID,85.831,VALID,282.226,VALID,19.753,VALID,125.0,VALID,1.434,
2018-08-27, 07:52:07,VALID,918.164,VALID,0.0,VALID,85.338,VALID,262.969,VALID,19.793,VALID,126.0,VALID,1.378,
2018-08-27, 07:53:07,VALID,918.184,VALID,0.0,VALID,85.363,VALID,260.808,VALID,19.858,VALID,128.0,VALID,1.42,
2018-08-27, 07:54:07,VALID,918.21,VALID,0.0,VALID,85.386,VALID,240.894,VALID,19.934,VALID,131.0,VALID,1.064,
2018-08-27, 07:55:07,VALID,918.239,VALID,0.0,VALID,85.346,VALID,271.131,VALID,20.027,VALID,124.0,VALID,0.79,
2018-08-27, 07:56:07,VALID,918.259,VALID,0.0,VALID,85.27,VALID,330.705,VALID,20.121,VALID,138.0,VALID,0.657,
2018-08-27, 07:57:07,VALID,918.276,VALID,0.0,VALID,85.026,VALID,333.436,VALID,20.304,VALID,139.0,VALID,0.338,
2018-08-27, 07:58:07,VALID,918.303,VALID,0.0,VALID,84.088,VALID,335.018,VALID,20.532,VALID,128.0,VALID,0.169,
2018-08-27, 07:59:07,VALID,918.309,VALID,0.0,VALID,83.379,VALID,331.1,VALID,20.759,VALID,87.0,VALID,0.216,
2018-08-27, 08:00:07,VALID,918.339,VALID,0.0,VALID,81.933,VALID,329.737,VALID,20.977,VALID,108.0,VALID,0.145,
2018-08-27, 08:01:07,VALID,918.344,VALID,0.0,VALID,80.94,VALID,293.742,VALID,21.182,VALID,105.0,VALID,0.013,
2018-08-27, 08:02:07,VALID,918.348,VALID,0.0,VALID,81.904,VALID,266.953,VALID,21.359,VALID,58.0,VALID,0.135,
2018-08-27, 08:03:07,VALID,918.376,VALID,0.0,VALID,82.227,VALID,291.609,VALID,21.471,VALID,64.0,VALID,1.121,
2018-08-27, 08:04:07,VALID,918.38,VALID,0.0,VALID,81.889,VALID,335.163,VALID,21.368,VALID,74.0,VALID,1.312,
2018-08-27, 08:05:07,VALID,918.398,VALID,0.0,VALID,82.146,VALID,319.321,VALID,21.264,VALID,93.0,VALID,1.346,
2018-08-27, 08:06:07,VALID,918.397,VALID,0.0,VALID,81.911,VALID,312.35,VALID,21.217,VALID,99.0,VALID,0.845,
2018-08-27, 08:07:07,VALID,918.391,VALID,0.0,VALID,82.97,VALID,326.392,VALID,21.367,VALID,77.0,VALID,0.85,
2018-08-27, 08:08:07,VALID,918.406,VALID,0.0,VALID,81.858,VALID,348.73,VALID,21.544,VALID,60.0,VALID,0.766,
2018-08-27, 08:09:07,VALID,918.405,VALID,0.0,VALID,81.543,VALID,392.575,VALID,21.7,VALID,47.0,VALID,0.421,
2018-08-27, 08:10:07,VALID,918.423,VALID,0.0,VALID,80.383,VALID,368.02,VALID,21.876,VALID,66.0,VALID,0.461,
2018-08-27, 08:11:07,VALID,918.415,VALID,0.0,VALID,79.712,VALID,390.73,VALID,22.015,VALID,55.0,VALID,0.518,
2018-08-27, 08:12:07,VALID,918.394,VALID,0.0,VALID,79.295,VALID,402.783,VALID,22.163,VALID,2.0,VALID,0.312,
2018-08-27, 08:13:07,VALID,918.393,VALID,0.0,VALID,78.124,VALID,432.225,VALID,22.273,VALID,352.0,VALID,0.667,
2018-08-27, 08:14:07,VALID,918.411,VALID,0.0,VALID,77.773,VALID,404.847,VALID,22.206,VALID,13.0,VALID,0.349,
2018-08-27, 08:15:07,VALID,918.421,VALID,0.0,VALID,78.631,VALID,326.817,VALID,22.234,VALID,28.0,VALID,0.478,
2018-08-27, 08:16:07,VALID,918.442,VALID,0.0,VALID,78.055,VALID,292.667,VALID,22.284,VALID,48.0,VALID,0.412,
2018-08-27, 08:17:07,VALID,918.477,VALID,0.0,VALID,79.619,VALID,319.264,VALID,22.39,VALID,51.0,VALID,0.327,
2018-08-27, 08:18:07,VALID,918.518,VALID,0.0,VALID,79.109,VALID,300.3,VALID,22.614,VALID,66.0,VALID,0.478,
2018-08-27, 08:19:07,VALID,918.561,VALID,0.0,VALID,77.782,VALID,276.347,VALID,22.766,VALID,99.0,VALID,0.532,
2018-08-27, 08:20:07,VALID,918.587,VALID,0.0,VALID,76.234,VALID,257.846,VALID,22.762,VALID,103.0,VALID,0.568,
2018-08-27, 08:21:07,VALID,918.597,VALID,0.0,VALID,76.591,VALID,304.574,VALID,22.642,VALID,119.0,VALID,0.958,
2018-08-27, 08:22:07,VALID,918.633,VALID,0.0,VALID,76.647,VALID,324.194,VALID,22.35,VALID,136.0,VALID,0.656,
2018-08-27, 08:23:07,VALID,918.638,VALID,0.0,VALID,77.907,VALID,326.884,VALID,22.319,VALID,162.0,VALID,0.159,
2018-08-27, 08:24:07,VALID,918.672,VALID,0.0,VALID,77.021,VALID,368.586,VALID,22.462,VALID,128.0,VALID,0.314,
2018-08-27, 08:25:07,VALID,918.66,VALID,0.0,VALID,77.464,VALID,331.484,VALID,22.648,VALID,102.0,VALID,0.228,
2018-08-27, 08:26:07,VALID,918.684,VALID,0.0,VALID,76.349,VALID,309.885,VALID,22.74,VALID,78.0,VALID,0.453,
2018-08-27, 08:27:07,VALID,918.705,VALID,0.0,VALID,76.27,VALID,289.177,VALID,22.685,VALID,80.0,VALID,0.418,
2018-08-27, 08:28:07,VALID,918.731,VALID,0.0,VALID,77.359,VALID,301.745,VALID,22.628,VALID,78.0,VALID,0.336,
2018-08-27, 08:29:07,VALID,918.725,VALID,0.0,VALID,78.712,VALID,322.211,VALID,22.635,VALID,61.0,VALID,0.996,
2018-08-27, 08:30:07,VALID,918.751,VALID,0.0,VALID,79.758,VALID,356.569,VALID,22.541,VALID,34.0,VALID,0.938,
2018-08-27, 08:31:07,VALID,918.764,VALID,0.0,VALID,80.106,VALID,356.101,VALID,22.348,VALID,31.0,VALID,0.754,
2018-08-27, 08:32:07,VALID,918.77,VALID,0.0,VALID,80.479,VALID,368.643,VALID,22.24,VALID,41.0,VALID,0.755,
2018-08-27, 08:33:07,VALID,918.766,VALID,0.0,VALID,80.135,VALID,389.285,VALID,22.099,VALID,37.0,VALID,0.871,
2018-08-27, 08:34:07,VALID,918.775,VALID,0.0,VALID,80.906,VALID,393.203,VALID,22.017,VALID,47.0,VALID,0.509,
2018-08-27, 08:35:07,VALID,918.796,VALID,0.0,VALID,80.669,VALID,451.89,VALID,22.075,VALID,52.0,VALID,1.083,
2018-08-27, 08:36:07,VALID,918.814,VALID,0.0,VALID,78.196,VALID,464.147,VALID,22.237,VALID,13.0,VALID,0.817,
2018-08-27, 08:37:07,VALID,918.828,VALID,0.0,VALID,78.345,VALID,472.951,VALID,22.347,VALID,337.0,VALID,0.888,
2018-08-27, 08:38:07,VALID,918.854,VALID,0.0,VALID,76.951,VALID,482.5,VALID,22.493,VALID,345.0,VALID,0.709,
2018-08-27, 08:39:07,VALID,918.884,VALID,0.0,VALID,76.086,VALID,513.357,VALID,22.437,VALID,12.0,VALID,0.939,
2018-08-27, 08:40:07,VALID,918.88,VALID,0.0,VALID,78.282,VALID,520.792,VALID,22.465,VALID,26.0,VALID,1.058,
2018-08-27, 08:41:07,VALID,918.913,VALID,0.0,VALID,77.849,VALID,535.906,VALID,22.643,VALID,359.0,VALID,0.934,
2018-08-27, 08:42:07,VALID,918.928,VALID,0.0,VALID,76.233,VALID,489.252,VALID,22.587,VALID,8.0,VALID,0.755,
2018-08-27, 08:43:07,VALID,918.932,VALID,0.0,VALID,75.655,VALID,449.359,VALID,22.556,VALID,310.0,VALID,1.243,
2018-08-27, 08:44:07,VALID,918.935,VALID,0.0,VALID,76.032,VALID,461.253,VALID,22.664,VALID,32.0,VALID,1.205,
2018-08-27, 08:45:07,VALID,918.944,VALID,0.0,VALID,74.001,VALID,451.516,VALID,22.813,VALID,51.0,VALID,1.047,
2018-08-27, 08:46:07,VALID,918.976,VALID,0.0,VALID,74.829,VALID,419.891,VALID,22.917,VALID,23.0,VALID,0.886,
2018-08-27, 08:47:07,VALID,919.0,VALID,0.0,VALID,74.909,VALID,433.029,VALID,23.019,VALID,45.0,VALID,0.806,
2018-08-27, 08:48:07,VALID,919.012,VALID,0.0,VALID,74.238,VALID,427.002,VALID,23.211,VALID,38.0,VALID,0.916,
2018-08-27, 08:49:07,VALID,919.027,VALID,0.0,VALID,74.612,VALID,444.468,VALID,23.198,VALID,27.0,VALID,0.818,
2018-08-27, 08:50:07,VALID,919.052,VALID,0.0,VALID,73.369,VALID,477.549,VALID,23.167,VALID,15.0,VALID,1.151,
2018-08-27, 08:51:07,VALID,919.06,VALID,0.0,VALID,71.575,VALID,481.998,VALID,22.951,VALID,18.0,VALID,0.991,
2018-08-27, 08:52:07,VALID,919.07,VALID,0.0,VALID,72.461,VALID,496.223,VALID,22.752,VALID,28.0,VALID,1.092,
2018-08-27, 08:53:07,VALID,919.086,VALID,0.0,VALID,72.936,VALID,502.399,VALID,22.738,VALID,6.0,VALID,0.842,
2018-08-27, 08:54:07,VALID,919.09,VALID,0.0,VALID,73.596,VALID,482.487,VALID,22.917,VALID,360.0,VALID,0.637,
2018-08-27, 08:55:07,VALID,919.079,VALID,0.0,VALID,75.28,VALID,474.189,VALID,23.063,VALID,8.0,VALID,0.3,
2018-08-27, 08:56:07,VALID,919.088,VALID,0.0,VALID,73.768,VALID,492.567,VALID,23.284,VALID,318.0,VALID,0.464,
2018-08-27, 08:57:07,VALID,919.061,VALID,0.0,VALID,73.018,VALID,514.37,VALID,23.389,VALID,329.0,VALID,0.256,
2018-08-27, 08:58:07,VALID,919.069,VALID,0.0,VALID,72.179,VALID,537.982,VALID,23.623,VALID,29.0,VALID,0.477,
2018-08-27, 08:59:07,VALID,919.054,VALID,0.0,VALID,70.583,VALID,527.971,VALID,23.729,VALID,14.0,VALID,0.409,
2018-08-27, 09:00:07,VALID,919.075,VALID,0.0,VALID,70.773,VALID,526.801,VALID,23.759,VALID,4.0,VALID,0.731,
2018-08-27, 09:01:07,VALID,919.077,VALID,0.0,VALID,71.946,VALID,553.23,VALID,23.694,VALID,359.0,VALID,0.73,
2018-08-27, 09:02:07,VALID,919.117,VALID,0.0,VALID,71.654,VALID,547.508,VALID,23.776,VALID,37.0,VALID,0.21,
2018-08-27, 09:03:07,VALID,919.121,VALID,0.0,VALID,69.859,VALID,517.703,VALID,23.991,VALID,42.0,VALID,0.0,
2018-08-27, 09:04:07,VALID,919.137,VALID,0.0,VALID,67.892,VALID,480.938,VALID,24.122,VALID,12.0,VALID,0.471,
2018-08-27, 09:05:07,VALID,919.164,VALID,0.0,VALID,68.701,VALID,464.924,VALID,24.036,VALID,8.0,VALID,0.052,
2018-08-27, 09:06:07,VALID,919.167,VALID,0.0,VALID,68.532,VALID,446.495,VALID,24.213,VALID,346.0,VALID,0.0,
2018-08-27, 09:07:07,VALID,919.175,VALID,0.0,VALID,67.953,VALID,496.413,VALID,24.43,VALID,318.0,VALID,0.0,
2018-08-27, 09:08:07,VALID,919.182,VALID,0.0,VALID,68.027,VALID,521.665,VALID,24.59,VALID,333.0,VALID,0.0,
2018-08-27, 09:09:07,VALID,919.185,VALID,0.0,VALID,67.266,VALID,540.947,VALID,24.79,VALID,6.0,VALID,0.0,
2018-08-27, 09:10:07,VALID,919.184,VALID,0.0,VALID,64.758,VALID,526.991,VALID,24.88,VALID,22.0,VALID,0.0,
2018-08-27, 09:11:07,VALID,919.183,VALID,0.0,VALID,64.84,VALID,493.599,VALID,24.932,VALID,349.0,VALID,0.0,
2018-08-27, 09:12:07,VALID,919.174,VALID,0.0,VALID,65.74,VALID,490.858,VALID,24.89,VALID,294.0,VALID,0.052,
2018-08-27, 09:13:07,VALID,919.147,VALID,0.0,VALID,65.503,VALID,486.533,VALID,24.8,VALID,346.0,VALID,0.173,
2018-08-27, 09:14:07,VALID,919.121,VALID,0.0,VALID,66.002,VALID,491.865,VALID,24.801,VALID,279.0,VALID,0.107,
2018-08-27, 09:15:07,VALID,919.073,VALID,0.0,VALID,61.311,VALID,513.329,VALID,24.721,VALID,258.0,VALID,0.097,
2018-08-27, 09:16:07,VALID,919.028,VALID,0.0,VALID,60.434,VALID,518.183,VALID,24.803,VALID,333.0,VALID,0.252,
2018-08-27, 09:17:07,VALID,919.001,VALID,0.0,VALID,60.209,VALID,508.945,VALID,24.961,VALID,284.0,VALID,0.215,
2018-08-27, 09:18:06,VALID,918.972,VALID,0.0,VALID,58.539,VALID,530.539,VALID,24.836,VALID,247.0,VALID,0.116,
2018-08-27, 09:19:06,VALID,918.949,VALID,0.0,VALID,59.236,VALID,537.776,VALID,24.681,VALID,291.0,VALID,0.045,
2018-08-27, 09:20:06,VALID,918.942,VALID,0.0,VALID,60.532,VALID,551.247,VALID,24.923,VALID,15.0,VALID,0.203,
2018-08-27, 09:21:06,VALID,918.93,VALID,0.0,VALID,60.745,VALID,571.265,VALID,25.24,VALID,291.0,VALID,0.081,
2018-08-27, 09:22:06,VALID,918.94,VALID,0.0,VALID,58.59,VALID,587.494,VALID,25.395,VALID,293.0,VALID,0.0,
2018-08-27, 09:23:06,VALID,918.935,VALID,0.0,VALID,56.681,VALID,601.954,VALID,25.314,VALID,296.0,VALID,0.0,
2018-08-27, 09:24:06,VALID,918.928,VALID,0.0,VALID,58.75,VALID,632.783,VALID,25.351,VALID,283.0,VALID,0.0,
2018-08-27, 09:25:06,VALID,918.927,VALID,0.0,VALID,57.791,VALID,646.235,VALID,25.338,VALID,259.0,VALID,0.0,
2018-08-27, 09:26:06,VALID,918.912,VALID,0.0,VALID,59.244,VALID,667.776,VALID,25.317,INVALID,360.0,VALID,0.0,
2018-08-27, 09:27:06,VALID,918.929,VALID,0.0,VALID,58.875,VALID,674.258,VALID,25.611,INVALID,360.0,VALID,0.0,
2018-08-27, 09:28:06,VALID,918.919,VALID,0.0,VALID,58.67,VALID,627.15,VALID,25.784,INVALID,360.0,VALID,0.0,
2018-08-27, 09:29:06,VALID,918.934,VALID,0.0,VALID,58.891,VALID,628.555,VALID,25.813,INVALID,360.0,VALID,0.0,
2018-08-27, 09:30:06,VALID,918.949,VALID,0.0,VALID,59.014,VALID,632.944,VALID,25.937,INVALID,360.0,VALID,0.0,
2018-08-27, 09:31:06,VALID,918.968,VALID,0.0,VALID,55.468,VALID,626.745,VALID,25.891,INVALID,360.0,VALID,0.0,
2018-08-27, 09:32:06,VALID,918.985,VALID,0.0,VALID,54.363,VALID,613.803,VALID,25.454,INVALID,360.0,VALID,0.0,
2018-08-27, 09:33:06,VALID,918.985,VALID,0.0,VALID,55.72,VALID,646.854,VALID,25.208,INVALID,360.0,VALID,0.0,
2018-08-27, 09:34:06,VALID,918.998,VALID,0.0,VALID,58.7,VALID,646.555,VALID,25.177,INVALID,360.0,VALID,0.0,
2018-08-27, 09:35:06,VALID,918.994,VALID,0.0,VALID,58.392,VALID,634.208,VALID,25.323,INVALID,360.0,VALID,0.062,
2018-08-27, 09:36:06,VALID,919.015,VALID,0.0,VALID,58.927,VALID,634.837,VALID,25.389,INVALID,360.0,VALID,0.0,
2018-08-27, 09:37:06,VALID,919.027,VALID,0.0,VALID,58.25,VALID,640.406,VALID,25.616,INVALID,360.0,VALID,0.0,
2018-08-27, 09:38:06,VALID,919.021,VALID,0.0,VALID,56.906,VALID,663.16,VALID,25.778,INVALID,360.0,VALID,0.0,
2018-08-27, 09:39:06,VALID,919.049,VALID,0.0,VALID,57.768,VALID,661.704,VALID,25.88,INVALID,360.0,VALID,0.0,
2018-08-27, 09:40:06,VALID,919.065,VALID,0.0,VALID,57.256,VALID,678.983,VALID,25.975,INVALID,360.0,VALID,0.11,
2018-08-27, 09:41:06,VALID,919.091,VALID,0.0,VALID,57.029,VALID,690.381,VALID,26.037,VALID,345.0,VALID,0.656,
2018-08-27, 09:42:06,VALID,919.111,VALID,0.0,VALID,57.176,VALID,706.88,VALID,25.732,VALID,351.0,VALID,0.225,
2018-08-27, 09:43:06,VALID,919.135,VALID,0.0,VALID,59.103,VALID,711.921,VALID,25.831,VALID,5.0,VALID,0.637,
2018-08-27, 09:44:06,VALID,919.146,VALID,0.0,VALID,58.77,VALID,727.653,VALID,25.738,VALID,1.0,VALID,0.738,
2018-08-27, 09:45:06,VALID,919.182,VALID,0.0,VALID,60.044,VALID,741.46,VALID,25.839,VALID,2.0,VALID,0.897,
2018-08-27, 09:46:06,VALID,919.165,VALID,0.0,VALID,56.819,VALID,749.65,VALID,25.622,VALID,340.0,VALID,0.623,
2018-08-27, 09:47:06,VALID,919.148,VALID,0.0,VALID,59.01,VALID,745.156,VALID,25.392,VALID,352.0,VALID,0.209,
2018-08-27, 09:48:06,VALID,919.116,VALID,0.0,VALID,59.512,VALID,653.83,VALID,25.587,VALID,355.0,VALID,0.109,
2018-08-27, 09:49:06,VALID,919.068,VALID,0.0,VALID,59.055,VALID,659.981,VALID,25.907,INVALID,360.0,VALID,0.0,
2018-08-27, 09:50:06,VALID,919.011,VALID,0.0,VALID,58.052,VALID,701.513,VALID,25.991,INVALID,360.0,VALID,0.0,
2018-08-27, 09:51:06,VALID,918.971,VALID,0.0,VALID,58.806,VALID,676.823,VALID,25.972,INVALID,360.0,VALID,0.0,
2018-08-27, 09:52:06,VALID,918.932,VALID,0.0,VALID,58.841,VALID,731.255,VALID,25.934,INVALID,360.0,VALID,0.0,
2018-08-27, 09:53:06,VALID,918.907,VALID,0.0,VALID,59.749,VALID,756.682,VALID,25.887,INVALID,360.0,VALID,0.0,
2018-08-27, 09:54:06,VALID,918.884,VALID,0.0,VALID,59.271,VALID,736.407,VALID,26.036,INVALID,360.0,VALID,0.0,
2018-08-27, 09:55:06,VALID,918.865,VALID,0.0,VALID,58.421,VALID,754.73,VALID,26.109,INVALID,360.0,VALID,0.0,
2018-08-27, 09:56:06,VALID,918.853,VALID,0.0,VALID,59.629,VALID,748.198,VALID,26.217,INVALID,360.0,VALID,0.0,
2018-08-27, 09:57:06,VALID,918.833,VALID,0.0,VALID,59.855,VALID,739.84,VALID,26.389,INVALID,360.0,VALID,0.0,
2018-08-27, 09:58:06,VALID,918.832,VALID,0.0,VALID,59.253,VALID,759.047,VALID,26.625,VALID,346.0,VALID,0.417,
2018-08-27, 09:59:06,VALID,918.829,VALID,0.0,VALID,56.43,VALID,765.215,VALID,26.58,VALID,26.0,VALID,0.901,
2018-08-27, 10:00:06,VALID,918.822,VALID,0.0,VALID,57.555,VALID,748.563,VALID,26.548,VALID,32.0,VALID,0.504,
2018-08-27, 10:01:06,VALID,918.836,VALID,0.0,VALID,57.163,VALID,707.811,VALID,26.621,INVALID,360.0,VALID,0.163,
2018-08-27, 10:02:06,VALID,918.857,VALID,0.0,VALID,56.896,VALID,705.164,VALID,26.519,INVALID,360.0,VALID,0.0,
2018-08-27, 10:03:06,VALID,918.842,VALID,0.0,VALID,56.851,VALID,714.411,VALID,26.555,VALID,13.0,VALID,0.386,
2018-08-27, 10:04:06,VALID,918.846,VALID,0.0,VALID,56.313,VALID,729.864,VALID,26.429,VALID,346.0,VALID,0.397,
2018-08-27, 10:05:06,VALID,918.836,VALID,0.0,VALID,58.63,VALID,744.389,VALID,26.298,VALID,13.0,VALID,1.006,
2018-08-27, 10:06:06,VALID,918.826,VALID,0.0,VALID,58.68,VALID,756.293,VALID,26.249,VALID,23.0,VALID,0.841,
2018-08-27, 10:07:06,VALID,918.822,VALID,0.0,VALID,58.3,VALID,788.475,VALID,26.38,INVALID,360.0,VALID,0.111,
2018-08-27, 10:08:06,VALID,918.817,VALID,0.0,VALID,57.953,VALID,802.308,VALID,26.743,VALID,9.0,VALID,0.581,
2018-08-27, 10:09:06,VALID,918.828,VALID,0.0,VALID,55.265,VALID,801.85,VALID,26.965,VALID,356.0,VALID,0.858,
2018-08-27, 10:10:06,VALID,918.819,VALID,0.0,VALID,55.632,VALID,785.685,VALID,26.879,VALID,10.0,VALID,1.194,
2018-08-27, 10:11:06,VALID,918.841,VALID,0.0,VALID,56.937,VALID,779.484,VALID,26.856,VALID,17.0,VALID,0.475,
2018-08-27, 10:12:06,VALID,918.852,VALID,0.0,VALID,56.658,VALID,750.991,VALID,26.872,VALID,25.0,VALID,0.592,
2018-08-27, 10:13:06,VALID,918.858,VALID,0.0,VALID,58.669,VALID,658.48,VALID,26.776,VALID,360.0,VALID,0.337,
2018-08-27, 10:14:06,VALID,918.865,VALID,0.0,VALID,58.426,VALID,742.502,VALID,26.824,VALID,22.0,VALID,1.181,
2018-08-27, 10:15:06,VALID,918.869,VALID,0.0,VALID,59.124,VALID,781.699,VALID,26.792,VALID,7.0,VALID,0.691,
2018-08-27, 10:16:06,VALID,918.871,VALID,0.0,VALID,59.055,VALID,803.305,VALID,26.679,VALID,21.0,VALID,0.481,
2018-08-27, 10:17:06,VALID,918.863,VALID,0.0,VALID,58.867,VALID,807.87,VALID,26.823,VALID,6.0,VALID,0.613,
2018-08-27, 10:18:06,VALID,918.85,VALID,0.0,VALID,58.273,VALID,820.16,VALID,26.755,VALID,2.0,VALID,0.27,
2018-08-27, 10:19:06,VALID,918.852,VALID,0.0,VALID,59.278,VALID,831.563,VALID,26.981,INVALID,360.0,VALID,0.145,
2018-08-27, 10:20:06,VALID,918.859,VALID,0.0,VALID,56.808,VALID,832.583,VALID,27.161,INVALID,360.0,VALID,0.005,
2018-08-27, 10:21:06,VALID,918.854,VALID,0.0,VALID,57.839,VALID,833.245,VALID,27.309,VALID,5.0,VALID,0.352,
2018-08-27, 10:22:06,VALID,918.849,VALID,0.0,VALID,58.185,VALID,829.917,VALID,27.318,VALID,24.0,VALID,1.514,
2018-08-27, 10:23:06,VALID,918.849,VALID,0.0,VALID,57.336,VALID,834.06,VALID,27.328,INVALID,360.0,VALID,0.313,
2018-08-27, 10:24:06,VALID,918.841,VALID,0.0,VALID,58.255,VALID,836.689,VALID,27.288,VALID,27.0,VALID,1.416,
2018-08-27, 10:25:06,VALID,918.837,VALID,0.0,VALID,58.542,VALID,837.444,VALID,27.243,VALID,21.0,VALID,1.527,
2018-08-27, 10:26:06,VALID,918.818,VALID,0.0,VALID,56.214,VALID,838.956,VALID,27.041,VALID,7.0,VALID,1.032,
2018-08-27, 10:27:06,VALID,918.817,VALID,0.0,VALID,57.474,VALID,839.194,VALID,26.958,VALID,355.0,VALID,0.266,
2018-08-27, 10:28:06,VALID,918.783,VALID,0.0,VALID,55.712,VALID,841.558,VALID,26.859,VALID,352.0,VALID,0.909,
2018-08-27, 10:29:06,VALID,918.767,VALID,0.0,VALID,57.568,VALID,842.447,VALID,26.704,VALID,5.0,VALID,0.88,
2018-08-27, 10:30:06,VALID,918.751,VALID,0.0,VALID,56.111,VALID,842.339,VALID,26.539,VALID,351.0,VALID,0.479,
2018-08-27, 10:31:06,VALID,918.754,VALID,0.0,VALID,57.282,VALID,845.073,VALID,26.526,VALID,349.0,VALID,0.394,
2018-08-27, 10:32:06,VALID,918.748,VALID,0.0,VALID,57.097,VALID,848.458,VALID,26.633,VALID,31.0,VALID,0.99,
2018-08-27, 10:33:06,VALID,918.759,VALID,0.0,VALID,57.598,VALID,848.991,VALID,26.526,VALID,2.0,VALID,1.006,
2018-08-27, 10:34:06,VALID,918.757,VALID,0.0,VALID,57.312,VALID,850.654,VALID,26.419,VALID,352.0,VALID,0.576,
2018-08-27, 10:35:06,VALID,918.763,VALID,0.0,VALID,58.354,VALID,850.004,VALID,26.486,VALID,13.0,VALID,0.709,
2018-08-27, 10:36:06,VALID,918.762,VALID,0.0,VALID,58.046,VALID,849.727,VALID,26.578,VALID,20.0,VALID,0.714,